Location: Cortada Guamacho
(10.5667°N, 67.0833°W)
Time: 16:52:31
(UTC+00:00)

SWIFT - Pass Details

Date: 06 July 2022
Orbit: 539 x 553 km, 20.6° (Epoch: 18 August)

Event Time Altitude Azimuth Distance (km) Brightness Sun altitude
Exits shadow 08:02:30 12° 122° (ESE) 1,657 5.0 -28.9°
Drops below altitude 10° 08:02:49 10° 121° (ESE) 1,779 5.2 -28.8°
Sets 08:05:07 0° 117° (ESE) 2,669 6.2 -28.4°
